"Pseudo-MPEC" for ZTF10DD

Created 2026 Apr 15 18:35:10 UT using Find_Orb

Click here for an explanation of pseudo-MPECs

 
 Astrometry: 
     ZTF10DD*0C2026 04 04.20436911 09 09.083-10 10 57.77   ~44Ho 13.32gUNEOCPI41
     ZTF10DD 0C2026 04 04.20471611 09 15.883-10 12 32.05   ~44Ho 13.32gUNEOCPI41
     ZTF10DD 0C2026 04 04.24358111 22 09.855-13 10 30.42   ~44Ho 12.61iUNEOCPI41
     ZTF10DD 0C2026 04 04.24392811 22 16.967-13 12 05.16   ~44Ho 12.61iUNEOCPI41

Station data:
(I41) Palomar Mountain--ZTF  (N33.357336 W116.859780)  US/California.
   Observers B. T. Bolin, Z. T. F. Collaboration. Measurers B. T. Bolin,
   Z.-Y. Lin, F. J. Masci. 1.2-m f/2.4 Schmidt.

Orbital elements:  ZTF10DD
   Perigee 2026 Apr 4.466302 +/- 23.2 TT = 11:11:28.4 (JD 2461134.966302)
Epoch 2026 Apr  4.0 TT = JDT 2461134.5                           AutoNEOCP
q276609.9953 +/- 1.15e+7            (J2000 equator)
H   25.05 G 0.15                    Peri.  232.060831 +/- 48
                                    Node   336.385718 +/- 47
e  61.65920385 +/- 0.245            Incl.   42.140920 +/- 2.8
From 4 observations 2026 Apr. 4 (57.0 min); mean residual 2".14
Residuals in arcseconds: 
260404 I41  2.4-  1.7+    260404 I41  1.8+  2.5-    
260404 I41  2.4+  1.7-    260404 I41  1.9-  2.5+    

Ephemerides (geocentric):
Date (UTC) HH   RA             Dec           delta  r     elong  mag " sig PA
---- --------  ------------   ------------  ------ ------ -----  --- --------
2026 04 15 19  20 23 11.681   -24 46 04.34  .06084 0.9980  83.2 22.3  45d 105
2026 04 15 20  20 23 13.327   -24 45 50.00  .06106 0.9981  83.3 22.3  45d 105
2026 04 15 21  20 23 14.963   -24 45 35.77  .06128 0.9981  83.3 22.3  45d 105
2026 04 15 22  20 23 16.588   -24 45 21.62  .06150 0.9981  83.3 22.3  45d 105
2026 04 15 23  20 23 18.203   -24 45 07.58  .06172 0.9982  83.4 22.3  45d 105
2026 04 16 00  20 23 19.807   -24 44 53.63  .06194 0.9982  83.4 22.3  46d 105
2026 04 16 01  20 23 21.402   -24 44 39.78  .06217 0.9983  83.5 22.3  46d 105
2026 04 16 02  20 23 22.986   -24 44 26.02  .06239 0.9983  83.5 22.3  46d 105
2026 04 16 03  20 23 24.560   -24 44 12.35  .06261 0.9983  83.5 22.3  46d 105
2026 04 16 04  20 23 26.124   -24 43 58.77  .06283 0.9984  83.6 22.3  46d 105
2026 04 16 05  20 23 27.679   -24 43 45.28  .06305 0.9984  83.6 22.3  46d 105
2026 04 16 06  20 23 29.223   -24 43 31.89  .06327 0.9984  83.6 22.4  46d 105
2026 04 16 07  20 23 30.758   -24 43 18.58  .06349 0.9985  83.7 22.4  46d 105
2026 04 16 08  20 23 32.283   -24 43 05.36  .06371 0.9985  83.7 22.4  46d 105
2026 04 16 09  20 23 33.799   -24 42 52.22  .06393 0.9986  83.7 22.4  46d 105
2026 04 16 10  20 23 35.306   -24 42 39.18  .06415 0.9986  83.8 22.4  46d 105
2026 04 16 11  20 23 36.803   -24 42 26.22  .06437 0.9986  83.8 22.4  46d 105
2026 04 16 12  20 23 38.290   -24 42 13.34  .06459 0.9987  83.8 22.4  46d 105
2026 04 16 13  20 23 39.769   -24 42 00.54  .06481 0.9987  83.9 22.4  46d 105
2026 04 16 14  20 23 41.239   -24 41 47.83  .06502 0.9988  83.9 22.4  46d 105
2026 04 16 15  20 23 42.699   -24 41 35.20  .06524 0.9988  83.9 22.4  46d 105
2026 04 16 16  20 23 44.151   -24 41 22.66  .06546 0.9988  84.0 22.4  47d 105
2026 04 16 17  20 23 45.594   -24 41 10.19  .06568 0.9989  84.0 22.4  47d 105
2026 04 16 18  20 23 47.028   -24 40 57.80  .06590 0.9989  84.0 22.4  47d 105
2026 04 16 19  20 23 48.454   -24 40 45.50  .06612 0.9990  84.1 22.4  47d 105
2026 04 16 20  20 23 49.871   -24 40 33.27  .06634 0.9990  84.1 22.4  47d 105
2026 04 16 21  20 23 51.279   -24 40 21.11  .06656 0.9991  84.1 22.4  47d 105
2026 04 16 22  20 23 52.679   -24 40 09.04  .06678 0.9991  84.2 22.4  47d 105
2026 04 16 23  20 23 54.070   -24 39 57.04  .06700 0.9991  84.2 22.4  47d 105
2026 04 17 00  20 23 55.454   -24 39 45.11  .06722 0.9992  84.2 22.4  47d 105
2026 04 17 01  20 23 56.829   -24 39 33.26  .06744 0.9992  84.3 22.5  47d 105
2026 04 17 02  20 23 58.195   -24 39 21.49  .06766 0.9993  84.3 22.5  47d 105
2026 04 17 03  20 23 59.554   -24 39 09.79  .06788 0.9993  84.3 22.5  47d 105
2026 04 17 04  20 24 00.905   -24 38 58.16  .06810 0.9994  84.4 22.5  47d 105
2026 04 17 05  20 24 02.247   -24 38 46.60  .06832 0.9994  84.4 22.5  47d 105
2026 04 17 06  20 24 03.582   -24 38 35.11  .06854 0.9995  84.4 22.5  47d 105
2026 04 17 07  20 24 04.909   -24 38 23.70  .06876 0.9995  84.5 22.5  48d 105
2026 04 17 08  20 24 06.228   -24 38 12.35  .06898 0.9996  84.5 22.5  48d 105
2026 04 17 09  20 24 07.540   -24 38 01.08  .06919 0.9996  84.6 22.5  48d 105
2026 04 17 10  20 24 08.843   -24 37 49.87  .06941 0.9997  84.6 22.5  48d 105
2026 04 17 11  20 24 10.140   -24 37 38.73  .06963 0.9997  84.6 22.5  48d 105
2026 04 17 12  20 24 11.428   -24 37 27.66  .06985 0.9998  84.7 22.5  48d 105
2026 04 17 13  20 24 12.709   -24 37 16.65  .07007 0.9998  84.7 22.5  48d 105
2026 04 17 14  20 24 13.983   -24 37 05.72  .07029 0.9999  84.7 22.5  48d 105
2026 04 17 15  20 24 15.249   -24 36 54.84  .07051 0.9999  84.8 22.5  48d 105
2026 04 17 16  20 24 16.509   -24 36 44.04  .07073 1.0000  84.8 22.5  48d 105
2026 04 17 17  20 24 17.760   -24 36 33.30  .07095 1.0000  84.8 22.5  48d 105
2026 04 17 18  20 24 19.005   -24 36 22.62  .07117 1.0001  84.9 22.5  48d 105